Location: Jackson Park
(37.2862°N, 79.9123°W)
Time: 13:39:38
(UTC+00:00)

S-56A Canister/Altair - Pass Details

Date: 11 May 2026
Orbit: 633 x 2484 km, 38.9° (Epoch: 6 June)

Event Time Altitude Azimuth Distance (km) Brightness Sun altitude
Rises 06:44:21 0° 283° (WNW) 3,216 - -31.0°
Reaches altitude 10° 06:46:27 10° 283° (WNW) 2,423 - -30.8°
Maximum altitude 06:52:07 83° 197° (SSW) 1,059 - -30.4°
Exits shadow 06:52:43 75° 135° (SE) 1,110 8.1 -30.3°
Drops below altitude 10° 07:00:42 10° 110° (ESE) 3,582 11.0 -29.6°
Sets 07:04:25 0° 110° (ESE) 4,870 11.7 -29.2°
